Regional Weather Roundup
Issued by NWS

Home | Current Version | Previous Version | Graphics & Text | Print | Product List | Glossary On
Versions: 1 2 3 4 5 6 7 8 9 10 11 12 13 14 15 16 17 18 19 20 21 22 23 24 25 26 27 28 29 30 31 32 33 34 35 36 37 38 39 40 41 42 43 44 45 46 47 48 49 50
087
ASUS43 KLMK 231610
RWRKY
KENTUCKY REGIONAL WEATHER ROUNDUP
NATIONAL WEATHER SERVICE LOUISVILLE KY
1200 PM EDT THU MAR 23 2017

NOTE "FAIR" INDICATES FEW OR NO CLOUDS BELOW 12,000 FEET
WITH NO SIGNIFICANT WEATHER AND/OR OBSTRUCTIONS TO VISIBILITY.

KYZ001>023-026-027-061>063-070>075-231700-
WESTERN AND SOUTH CENTRAL KENTUCKY

CITY           SKY/WX    TMP DP  RH WIND       PRES   REMARKS
PADUCAH        CLOUDY    39  33  79 E10       30.34S WCI  32
HENDERSON      CLOUDY    37  27  65 S3        30.37F
OWENSBORO      LGT RAIN  43  25  49 SE6       30.39F
HOPKINSVILLE   DRIZZLE   42  30  62 NE7       30.35S
BOWLING GREEN  CLOUDY    52  28  39 MISG      30.38R
GLASGOW        PTSUNNY   56  27  32 CALM      30.38R
$$

KYZ024-025-028>034-038-045-046-053-231700-
NORTH CENTRAL KENTUCKY

CITY           SKY/WX    TMP DP  RH WIND       PRES   REMARKS
LOUISVILLE/SDF PTSUNNY   47  18  31 VRB3      30.41S
LOUISVILLE/LOU MOSUNNY   46  20  35 E7        30.41S
FORT KNOX      PTSUNNY   45  20  37 E5        30.37S
$$

KYZ035>037-039>044-047>052-055>060-089>105-231700-
NORTHEAST KENTUCKY

CITY           SKY/WX    TMP DP  RH WIND       PRES   REMARKS
LEXINGTON      SUNNY     48  18  30 E6        30.40F
COVINGTON      MOSUNNY   43  17  35 E10       30.43F
FRANKFORT      PTSUNNY   47  20  34 E8        30.40F
$$

KYZ054-064>069-076>088-106>120-231700-
SOUTHEAST KENTUCKY

CITY           SKY/WX    TMP DP  RH WIND       PRES   REMARKS
JACKSON        SUNNY     50  22  33 CALM      30.40S
LONDON         SUNNY     54  22  28 S9        30.39F
SOMERSET       SUNNY     52  25  35 S3        30.40S
MIDDLESBORO    SUNNY     56  25  30 SE5       30.42S
MONTICELLO     SUNNY     56  27  32 VRB7      30.39F
$$





USA.gov is the U.S. government's official web portal to all federal, state and local government web resources and services.